[[{"header":{"parameterUnit":"m.s-1","parameterCategory":2,"la1":30.2991,"la2":30.254,"lo1":-89.0895,"lo2":-89.0444,"dy":0.0017,"dx":0.0017,"nx":28,"ny":28,"refTime":"2025-04-30T09:00:00:Z","depth":"0","parameterNumber":2,"parameterNumberName":"U-component_of_CURRENTS"},"data":[0,0,0,0,0,0,0,0,0,0,0,0,0,0,0,0,0,0,0,0,0,0,0,0,0,0,0,0,0,0,0,0,0,0,0,0,0,0,0,0,0,0,0,0,0,0,0,0,0,0,0,0,0,0,0,0,0,0,0.2885,0.2885,0,0.2922,0.2922,0.2922,0.2909,0.2909,0.2909,0.2908,0.2906,0.2907,0.2907,0,0,0,0,0,0,0,0,0,0,0,0,0,0.2806,0.2808,0.2885,0.2885,0.2886,0.2922,0.2922,0.2922,0.291,0.2909,0.2908,0.2908,0.2906,0.2907,0.2907,0,0,0,0,0,0,0,0,0,0,0,0,0,0.2838,0.2808,0.2885,0.2887,0.2888,0.2922,0.2922,0.2922,0.291,0.2909,0.2908,0.2908,0.2906,0.2907,0.2907,0.2926,0,0,0.2909,0.2909,0,0,0,0,0,0,0,0,0.2836,0.2841,0.2886,0.2887,0.2888,0.2913,0.2894,0.2923,0.291,0.2898,0.2908,0.2907,0.2908,0.2908,0.2912,0.2926,0.2925,0.2909,0.2909,0.291,0.291,0,0,0,0,0,0,0,0.2834,0.2839,0.2896,0.2887,0.2888,0.2887,0.2891,0.2899,0.2903,0.2899,0.2899,0.2909,0.2907,0.2912,0.2912,0.2925,0.2909,0.291,0.291,0.291,0.2985,0.2987,0,0,0,0,0,0,0.2838,0.2837,0.2895,0.2897,0.2864,0.289,0.2893,0.2903,0.2904,0.2905,0.2909,0.2908,0.2911,0.2912,0.2912,0.2962,0.291,0.291,0.2911,0.2983,0.2985,0.2987,0,0,0,0,0,0,0.2836,0.2842,0.2893,0.2871,0.2877,0.2892,0.2903,0.2904,0.2913,0.2913,0.2912,0.2918,0.2911,0.2911,0.2932,0.296,0.2911,0.2911,0.2982,0.2984,0.2986,0.3043,0,0,0,0,0,0,0.2833,0.2841,0.285,0.2871,0.2879,0.2927,0.2904,0.2906,0.2922,0.292,0.292,0.2919,0.291,0.2932,0.2933,0.296,0.2912,0.2979,0.2983,0.2986,0.3039,0.3047,0.3054,0,0,0,0,0,0.283,0.2845,0.285,0.2857,0.289,0.2928,0.2933,0.2937,0.2923,0.2939,0.2937,0.2919,0.2952,0.2934,0.2935,0.2963,0.2978,0.2982,0.2985,0.3036,0.3046,0.3054,0,0,0,0,0,0,0.2811,0.2846,0.2851,0.2875,0.2907,0.2928,0.2943,0.2944,0.2955,0.295,0.2938,0.2938,0.2971,0.2961,0.2941,0.2995,0.2963,0.2967,0.3001,0.301,0.3018,0.3011,0.2912,0,0,0,0,0,0.2814,0.2835,0.287,0.289,0.2908,0.2926,0.294,0.2948,0.2962,0.2965,0.2966,0.2969,0.2988,0.2993,0.3006,0.3031,0.3037,0.3052,0.3059,0.3065,0.3063,0.3104,0.3115,0.2999,0.2999,0.2999,0,0,0.281,0.2835,0.2845,0.2889,0.2909,0.2941,0.2932,0.2963,0.2985,0.2964,0.2989,0.2999,0.3003,0.3037,0.305,0.3029,0.3105,0.307,0.3075,0.3069,0.3109,0.312,0.313,0.3002,0.3001,0.3001,0,0,0.282,0.284,0.2864,0.2895,0.2938,0.2956,0.2968,0.2998,0.3008,0.3039,0.3035,0.3059,0.3078,0.3092,0.3099,0.3155,0.3149,0.3163,0.3189,0.323,0.324,0.3248,0.3285,0.3296,0.316,0.3161,0.3161,0,0.2813,0.2847,0.2877,0.2912,0.2935,0.2964,0.2993,0.3018,0.3049,0.3064,0.3054,0.3102,0.3104,0.315,0.3169,0.3171,0.3192,0.3153,0.324,0.3248,0.3255,0.3291,0.3302,0.3164,0.3163,0.3163,0.3163,0,0.2845,0.2871,0.2891,0.2942,0.2974,0.3007,0.3048,0.3079,0.3091,0.3111,0.3161,0.3173,0.3197,0.3212,0.3204,0.3265,0.3263,0.325,0.3214,0.3271,0.3304,0.3315,0.3168,0.3167,0.3166,0.3165,0,0,0.2818,0.2896,0.2898,0.2921,0.299,0.3013,0.3069,0.3121,0.315,0.3186,0.3224,0.3263,0.3269,0.3278,0.3284,0.3315,0.339,0.3305,0.3305,0.3336,0.3488,0.3496,0.3509,0.3396,0.3398,0.3399,0.3495,0,0.2828,0.288,0.2924,0.2968,0.2996,0.3049,0.3091,0.3142,0.3187,0.3236,0.3268,0.3307,0.3296,0.3312,0.3347,0.3385,0.342,0.3366,0.3431,0.3433,0.3431,0.3522,0.3459,0.3539,0.3505,0.3507,0.3508,0,0.2835,0.2869,0.291,0.2971,0.2987,0.3018,0.3088,0.3134,0.3221,0.3256,0.3314,0.3347,0.3412,0.3385,0.348,0.345,0.3471,0.3492,0.3496,0.3487,0.3462,0.3475,0.356,0.3505,0.3525,0.3524,0.3522,0,0.2779,0.2853,0.2877,0.29,0.2979,0.3002,0.3043,0.3129,0.3186,0.3272,0.333,0.3399,0.3453,0.3495,0.3559,0.3524,0.3663,0.3616,0.3643,0.3643,0.3592,0.3585,0.3624,0.3674,0.3674,0.3674,0.3673,0,0.2761,0.2776,0.2847,0.2856,0.2884,0.2954,0.2998,0.3061,0.3172,0.3234,0.3328,0.3405,0.3486,0.3581,0.3598,0.3682,0.3702,0.367,0.3679,0.3612,0.3606,0.3556,0.3514,0.3677,0.3676,0.3676,0.3675,0,0.2686,0.2738,0.2764,0.2835,0.2855,0.2868,0.2973,0.3014,0.3132,0.3228,0.3264,0.3443,0.3563,0.3654,0.3745,0.3749,0.3724,0.3819,0.3741,0.3738,0.3679,0.3643,0.3529,0.3407,0.3854,0.3855,0.3856,0,0.265,0.2658,0.2723,0.2734,0.2761,0.2802,0.2832,0.2961,0.3025,0.3239,0.3282,0.347,0.3581,0.3769,0.382,0.3893,0.3761,0.3852,0.3762,0.3694,0.3661,0.3483,0.3373,0.3721,0.3721,0.3721,0.3721,0,0.2583,0.2606,0.2629,0.2658,0.2682,0.2713,0.2776,0.2836,0.2987,0.3097,0.3261,0.3387,0.3617,0.3708,0.3848,0.3867,0.3696,0.3846,0.3798,0.3589,0.3375,0.3256,0.3638,0.3718,0.3718,0.3718,0.3718,0.3719,0.253,0.2533,0.2573,0.2592,0.2604,0.262,0.2619,0.2715,0.2816,0.2964,0.315,0.3303,0.3566,0.3775,0.3771,0.3782,0.3675,0.3703,0.3676,0.3509,0.335,0.3733,0.3807,0.3807,0.3808,0.3809,0.3809,0,0.2502,0.2515,0.2514,0.2523,0.2486,0.2532,0.2575,0.2568,0.2628,0.2822,0.296,0.325,0.3428,0.3598,0.3755,0.3657,0.3435,0.3562,0.33,0.3204,0.3595,0.3551,0.3547,0.3547,0.3547,0.3547,0.3547,0.3547,0.2496,0.2496,0.2496,0.2421,0.2401,0.2337,0.2339,0.2349,0.2454,0.2604,0.2767,0.2963,0.3375,0.3678,0.369,0.3587,0.328,0.3164,0.3075,0.3399,0.3408,0.3417,0.3367,0.3325,0.3325,0.2561,0.2556,0.2552]},{"header":{"parameterUnit":"m.s-1","parameterCategory":2,"la1":30.2991,"la2":30.254,"lo1":-89.0895,"lo2":-89.0444,"dy":0.0017,"dx":0.0017,"nx":28,"ny":28,"refTime":"2025-04-30T09:00:00:Z","depth":"0","parameterNumber":3,"parameterNumberName":"V-component_of_CURRENTS"},"data":[0,0,0,0,0,0,0,0,0,0,0,0,0,0,0,0,0,0,0,0,0,0,0,0,0,0,0,0,0,0,0,0,0,0,0,0,0,0,0,0,0,0,0,0,0,0,0,0,0,0,0,0,0,0,0,0,0,0,0.0134,0.0133,0,0.0052,0.0051,0.005,-0.0007,-0.0008,-0.0008,-0.0008,-0.0127,-0.0129,-0.0132,0,0,0,0,0,0,0,0,0,0,0,0,0,0.0188,0.0188,0.0134,0.0133,0.0132,0.0052,0.0051,0.0049,-0.0007,-0.0008,-0.0008,-0.0008,-0.0126,-0.0129,-0.0133,0,0,0,0,0,0,0,0,0,0,0,0,0,0.014,0.0187,0.0134,0.0096,0.0091,0.0052,0.005,0.0049,-0.0007,-0.0008,-0.0008,-0.0008,-0.0125,-0.0129,-0.0133,-0.0152,0,0,-0.0146,-0.0148,0,0,0,0,0,0,0,0,0.0143,0.0138,0.0102,0.0098,0.0093,0.0033,0.0026,-0.0019,-0.0007,0.0028,-0.0008,-0.0009,-0.0075,-0.0083,-0.01,-0.0157,-0.0162,-0.0147,-0.0149,-0.0151,-0.0152,0,0,0,0,0,0,0,0.0146,0.014,0.01,0.0101,0.0096,0.0064,0.0057,0.0017,-0.0022,0.0025,0.0021,0.0015,-0.0078,-0.0096,-0.0103,-0.0164,-0.0147,-0.015,-0.0153,-0.0155,-0.0244,-0.0244,0,0,0,0,0,0,0.0163,0.0144,0.0102,0.0097,0.0119,0.0064,0.0056,0.0052,-0.0021,-0.0032,0.0015,0.0013,-0.0088,-0.0098,-0.0108,-0.0121,-0.0151,-0.0155,-0.0158,-0.0244,-0.0244,-0.0244,0,0,0,0,0,0,0.0164,0.016,0.0106,0.012,0.0111,0.0064,0.0059,0.005,0.0034,-0.0028,-0.004,0.0009,-0.0089,-0.0102,-0.0135,-0.0127,-0.0157,-0.0161,-0.0245,-0.0244,-0.0244,-0.0157,0,0,0,0,0,0,0.0166,0.0161,0.0165,0.0121,0.0111,0.0093,0.006,0.0049,0.0032,0.0027,-0.0037,-0.0049,-0.009,-0.0128,-0.0139,-0.0133,-0.0165,-0.0245,-0.0244,-0.0244,-0.016,-0.0154,-0.0148,0,0,0,0,0,0.0169,0.018,0.0166,0.016,0.0117,0.0093,0.0085,0.0049,0.0032,0.0031,-0.0011,-0.0047,-0.0133,-0.0131,-0.0144,-0.014,-0.0245,-0.0245,-0.0244,-0.0163,-0.0155,-0.0149,0,0,0,0,0,0,0.0205,0.0174,0.0157,0.0159,0.0132,0.0085,0.0082,0.0055,0.0021,0.0018,-0.0043,-0.0058,-0.0085,-0.0124,-0.012,-0.0165,-0.0195,-0.0197,-0.0129,-0.0123,-0.0117,-0.0096,-0.0168,0,0,0,0,0,0.0216,0.0217,0.018,0.0181,0.0172,0.0128,0.0114,0.0091,0.0054,0.0038,-0.0006,-0.0054,-0.0094,-0.0116,-0.0157,-0.018,-0.0218,-0.0187,-0.018,-0.0175,-0.0168,-0.0215,-0.0213,-0.0242,-0.0242,-0.0242,0,0,0.023,0.0214,0.0213,0.0189,0.0165,0.0164,0.0119,0.0107,0.0103,0.0031,0.0014,-0.0034,-0.0096,-0.0121,-0.0137,-0.0151,-0.0186,-0.0174,-0.0169,-0.0165,-0.0215,-0.0212,-0.0209,-0.0242,-0.0242,-0.0242,0,0,0.0266,0.0246,0.0261,0.0246,0.0222,0.0195,0.0196,0.0155,0.0135,0.0112,0.0059,0.002,-0.004,-0.0081,-0.0111,-0.0098,-0.0153,-0.0113,-0.0067,-0.0112,-0.011,-0.0109,-0.0146,-0.0149,-0.011,-0.011,-0.0109,0,0.0284,0.0297,0.0262,0.0273,0.027,0.0216,0.0234,0.0204,0.0156,0.0146,0.012,0.0032,-0.0021,-0.0056,-0.0054,-0.0083,-0.0116,-0.0086,-0.0103,-0.0103,-0.0103,-0.0142,-0.0146,-0.0105,-0.0106,-0.0106,-0.0107,0,0.0331,0.0341,0.035,0.0347,0.0338,0.0344,0.0305,0.029,0.0258,0.0226,0.0186,0.0112,0.0061,0.0034,-0.0008,-0.0033,-0.0058,-0.0089,-0.0116,-0.0094,-0.0137,-0.0143,-0.0099,-0.0101,-0.0102,-0.0103,0,0,0.0375,0.0383,0.0386,0.0404,0.0381,0.0382,0.0376,0.0358,0.0361,0.03,0.0295,0.0211,0.0169,0.0132,0.0069,0.0023,-0.0008,-0.0025,-0.003,-0.0053,-0.0103,-0.0104,-0.0111,-0.0041,-0.0042,-0.0042,-0.0131,0,0.0424,0.0471,0.0456,0.0497,0.052,0.0477,0.0479,0.0453,0.0419,0.0399,0.0312,0.0282,0.0206,0.0186,0.0127,0.003,-0.002,0.0019,-0.013,-0.0134,-0.013,-0.0117,-0.0088,-0.0163,-0.0137,-0.0138,-0.0139,0,0.0477,0.0504,0.0556,0.0583,0.0589,0.0598,0.0599,0.0592,0.0543,0.0517,0.0463,0.04,0.0325,0.0256,0.0103,0.0133,0.0024,-0.006,-0.0066,-0.01,-0.0146,-0.0185,-0.0175,-0.0355,-0.0148,-0.0147,-0.0147,0,0.0534,0.0575,0.0623,0.063,0.0645,0.0657,0.0656,0.0627,0.0645,0.0589,0.0601,0.049,0.0451,0.0302,0.0136,0.0118,-0.0032,-0.0082,-0.0189,-0.0191,-0.0213,-0.0215,-0.0386,-0.0197,-0.0197,-0.0197,-0.0196,0,0.0594,0.0632,0.0654,0.0679,0.074,0.0719,0.0769,0.0747,0.0743,0.0779,0.0666,0.0676,0.0461,0.0355,0.0177,-0.0007,-0.0002,-0.0175,-0.0212,-0.0181,-0.0179,-0.0374,-0.0492,-0.02,-0.0199,-0.0198,-0.0198,0,0.0646,0.0658,0.0719,0.0752,0.0768,0.0805,0.0856,0.0893,0.0872,0.0915,0.0909,0.0822,0.0685,0.0471,0.0236,0.0068,-0.0233,-0.0196,-0.0138,-0.0166,-0.0434,-0.0547,-0.0785,-0.087,-0.0331,-0.0332,-0.0332,0,0.0676,0.0713,0.0777,0.0822,0.0838,0.0895,0.094,0.0949,0.1005,0.1015,0.1053,0.0947,0.0902,0.0568,0.0251,-0.005,-0.025,-0.0235,-0.0274,-0.0439,-0.0594,-0.0688,-0.0749,-0.0275,-0.0275,-0.0275,-0.0275,0,0.074,0.0758,0.081,0.0903,0.0963,0.1042,0.1112,0.1184,0.1202,0.1256,0.1304,0.1272,0.0962,0.0691,0.0279,0.005,-0.0365,-0.0243,-0.0438,-0.0579,-0.0672,-0.0772,-0.0226,-0.0274,-0.0274,-0.0274,-0.0274,-0.0274,0.0788,0.084,0.091,0.1,0.1073,0.1178,0.1257,0.1352,0.1464,0.156,0.1514,0.1523,0.1106,0.056,0.0221,-0.0353,-0.0389,-0.0524,-0.0651,-0.0734,-0.0808,-0.025,-0.0323,-0.0323,-0.0323,-0.0324,-0.0324,0,0.0865,0.0923,0.1006,0.1112,0.12,0.1226,0.1369,0.1463,0.1613,0.1727,0.1783,0.163,0.1104,0.0552,-0.0221,-0.0657,-0.0839,-0.0907,-0.1046,-0.1092,-0.061,-0.0596,-0.0701,-0.0701,-0.0701,-0.0701,-0.0701,-0.0701,0.0912,0.1011,0.1053,0.1206,0.1275,0.1401,0.1487,0.1635,0.1764,0.1929,0.1992,0.2011,0.1627,0.0165,-0.0813,-0.1058,-0.1384,-0.1469,-0.1633,-0.1312,-0.1286,-0.1261,-0.1275,-0.152,-0.1522,-0.204,-0.2045,-0.2049]}],[{"header":{"parameterUnit":"m.s-1","parameterCategory":2,"la1":30.2991,"la2":30.254,"lo1":-89.0895,"lo2":-89.0444,"dy":0.0017,"dx":0.0017,"nx":28,"ny":28,"refTime":"2025-04-30T09:00:00:Z","depth":"2","parameterNumber":2,"parameterNumberName":"U-component_of_CURRENTS"},"data":[0,0,0,0,0,0,0,0,0,0,0,0,0,0,0,0,0,0,0,0,0,0,0,0,0,0,0,0,0,0,0,0,0,0,0,0,0,0,0,0,0,0,0,0,0,0,0,0,0,0,0,0,0,0,0,0,0,0,0.2764,0.2765,0,0.2804,0.2804,0.2805,0.2803,0.2803,0.2802,0.2802,0.2812,0.2813,0.2813,0,0,0,0,0,0,0,0,0,0,0,0,0,0.2687,0.2689,0.2764,0.2765,0.2766,0.2804,0.2804,0.2805,0.2803,0.2803,0.2802,0.2802,0.2812,0.2813,0.2813,0,0,0,0,0,0,0,0,0,0,0,0,0,0.272,0.2689,0.2764,0.2772,0.2773,0.2804,0.2804,0.2805,0.2803,0.2803,0.2802,0.2802,0.2812,0.2813,0.2813,0.2826,0,0,0.2816,0.2816,0,0,0,0,0,0,0,0,0.2718,0.2723,0.277,0.2771,0.2773,0.2801,0.2781,0.2812,0.2803,0.2788,0.2802,0.2802,0.2808,0.2809,0.2813,0.2827,0.2827,0.2816,0.2816,0.2817,0.2817,0,0,0,0,0,0,0,0.2716,0.2721,0.2777,0.2771,0.2773,0.2774,0.2778,0.2787,0.2797,0.279,0.279,0.28,0.2808,0.2813,0.2814,0.2827,0.2816,0.2817,0.2817,0.2817,0.2895,0.2897,0,0,0,0,0,0,0.2718,0.2719,0.2776,0.2778,0.2748,0.2776,0.278,0.279,0.2797,0.2799,0.28,0.28,0.2812,0.2813,0.2814,0.2869,0.2817,0.2817,0.2818,0.2894,0.2896,0.2897,0,0,0,0,0,0,0.2717,0.2723,0.2774,0.2752,0.2759,0.2778,0.2789,0.2791,0.2805,0.2807,0.2807,0.2813,0.2811,0.2813,0.2838,0.2868,0.2818,0.2818,0.2892,0.2894,0.2897,0.2954,0,0,0,0,0,0,0.2714,0.2722,0.2732,0.2752,0.276,0.2807,0.279,0.2792,0.2812,0.2812,0.2818,0.2818,0.2811,0.2837,0.2839,0.2868,0.2819,0.289,0.2893,0.2896,0.295,0.2958,0.2965,0,0,0,0,0,0.2711,0.2726,0.2732,0.2739,0.2772,0.2808,0.2813,0.2822,0.2813,0.283,0.2833,0.2818,0.2858,0.2839,0.2841,0.2871,0.2888,0.2892,0.2896,0.2947,0.2957,0.2965,0,0,0,0,0,0,0.2694,0.2728,0.2735,0.2758,0.2789,0.2809,0.2826,0.283,0.2846,0.2844,0.2837,0.2838,0.2875,0.2866,0.2846,0.2904,0.2872,0.2876,0.291,0.2919,0.2926,0.292,0.282,0,0,0,0,0,0.2697,0.2718,0.2752,0.2772,0.2789,0.2809,0.2824,0.2834,0.2851,0.2857,0.2862,0.287,0.2891,0.2898,0.2913,0.294,0.2944,0.2962,0.2969,0.2976,0.2973,0.3013,0.3024,0.2909,0.2909,0.2909,0,0,0.2695,0.2718,0.2729,0.2771,0.2792,0.2823,0.2817,0.2849,0.2872,0.2856,0.2887,0.2899,0.2906,0.2942,0.2957,0.2937,0.3014,0.298,0.2986,0.298,0.3018,0.3029,0.3039,0.2912,0.2911,0.2911,0,0,0.2704,0.2726,0.2748,0.2779,0.2822,0.2839,0.2852,0.2884,0.2898,0.2933,0.2932,0.296,0.2983,0.2998,0.3006,0.3062,0.3057,0.3072,0.31,0.3139,0.3149,0.3157,0.319,0.3201,0.3071,0.3071,0.3071,0,0.27,0.2732,0.2761,0.2794,0.2819,0.2848,0.2877,0.2903,0.2938,0.2956,0.295,0.3005,0.3009,0.3056,0.3076,0.3079,0.3099,0.3064,0.3149,0.3157,0.3164,0.3196,0.3207,0.3074,0.3074,0.3073,0.3073,0,0.2728,0.2756,0.2775,0.2825,0.2857,0.289,0.2931,0.2965,0.2983,0.3005,0.3059,0.3074,0.3103,0.3118,0.3112,0.3174,0.3171,0.3158,0.3123,0.3179,0.3209,0.322,0.3078,0.3077,0.3076,0.3076,0,0,0.2703,0.2778,0.2782,0.2806,0.2874,0.2897,0.2954,0.3007,0.3039,0.308,0.3122,0.3164,0.3174,0.3185,0.3193,0.3223,0.3297,0.3214,0.3215,0.3243,0.339,0.3383,0.3393,0.3303,0.3305,0.3307,0.3394,0,0.2713,0.2764,0.2806,0.2853,0.2881,0.2935,0.2977,0.3031,0.3078,0.313,0.3165,0.3208,0.3201,0.3221,0.3256,0.3292,0.3326,0.3274,0.3334,0.3336,0.332,0.3405,0.3149,0.3205,0.3404,0.3406,0.3407,0,0.272,0.2753,0.2796,0.2859,0.2876,0.2908,0.2982,0.3029,0.3116,0.3154,0.3216,0.325,0.3317,0.3292,0.3384,0.3356,0.3376,0.3395,0.3399,0.3375,0.3349,0.318,0.3217,0.3424,0.3423,0.3422,0.3421,0,0.2668,0.2741,0.2768,0.2792,0.2872,0.2899,0.2942,0.3028,0.3086,0.3174,0.3233,0.3303,0.3359,0.34,0.3459,0.3427,0.3557,0.3513,0.3524,0.3523,0.3307,0.3284,0.3569,0.3569,0.3569,0.3569,0.3568,0,0.2651,0.267,0.2743,0.2755,0.2788,0.2858,0.2908,0.2971,0.3081,0.3143,0.3237,0.3311,0.3391,0.348,0.3496,0.3566,0.3593,0.355,0.3555,0.3323,0.3302,0.3481,0.347,0.3572,0.3571,0.357,0.357,0,0.2583,0.2634,0.2665,0.2739,0.2762,0.2781,0.2889,0.293,0.3049,0.3143,0.3181,0.335,0.3461,0.3547,0.3632,0.3628,0.3676,0.3684,0.3413,0.3386,0.3599,0.359,0.3698,0.3698,0.3699,0.3699,0.37,0,0.255,0.2561,0.263,0.2645,0.2675,0.2723,0.2756,0.2885,0.2948,0.3153,0.3194,0.3371,0.3466,0.3633,0.3653,0.3708,0.3727,0.3487,0.3376,0.3623,0.3618,0.3607,0.3597,0.3108,0.3104,0.31,0.3097,0,0.2487,0.2513,0.2539,0.2574,0.2603,0.2638,0.2705,0.2762,0.2909,0.3015,0.3164,0.3273,0.3459,0.343,0.354,0.3521,0.3459,0.3418,0.375,0.3132,0.3079,0.307,0.3077,0.3065,0.3068,0.307,0.3072,0.3073,0.2437,0.244,0.2482,0.2506,0.2528,0.2546,0.2546,0.2639,0.2732,0.2856,0.3025,0.3099,0.3198,0.3252,0.3191,0.315,0.3374,0.3209,0.3214,0.3225,0.3158,0.311,0.3089,0.3092,0.3095,0.3097,0.31,0,0.2398,0.2413,0.2418,0.2434,0.2406,0.2462,0.2503,0.2486,0.2534,0.2676,0.2783,0.2662,0.2706,0.2784,0.2698,0.2746,0.2653,0.2616,0.2455,0.2494,0.2527,0.2416,0.2154,0.215,0.2147,0.2144,0,0,0.2384,0.2379,0.238,0.2318,0.2315,0.2261,0.2261,0.2254,0.2316,0.2324,0.2351,0.2587,0.2732,0.2392,0.239,0.2247,0.233,0.2164,0.2939,0.279,0.2816,0.2911,0.2793,0,0,0,0,0]},{"header":{"parameterUnit":"m.s-1","parameterCategory":2,"la1":30.2991,"la2":30.254,"lo1":-89.0895,"lo2":-89.0444,"dy":0.0017,"dx":0.0017,"nx":28,"ny":28,"refTime":"2025-04-30T09:00:00:Z","depth":"2","parameterNumber":3,"parameterNumberName":"V-component_of_CURRENTS"},"data":[0,0,0,0,0,0,0,0,0,0,0,0,0,0,0,0,0,0,0,0,0,0,0,0,0,0,0,0,0,0,0,0,0,0,0,0,0,0,0,0,0,0,0,0,0,0,0,0,0,0,0,0,0,0,0,0,0,0,0.0047,0.0047,0,-0.0029,-0.003,-0.0031,-0.0084,-0.0084,-0.0084,-0.0084,-0.0196,-0.0199,-0.0202,0,0,0,0,0,0,0,0,0,0,0,0,0,0.0095,0.0095,0.0047,0.0046,0.0046,-0.0029,-0.003,-0.0031,-0.0084,-0.0084,-0.0084,-0.0085,-0.0196,-0.0199,-0.0202,0,0,0,0,0,0,0,0,0,0,0,0,0,0.0051,0.0095,0.0047,0.0012,0.0008,-0.0029,-0.003,-0.0032,-0.0084,-0.0084,-0.0084,-0.0085,-0.0194,-0.0198,-0.0203,-0.0221,0,0,-0.0215,-0.0217,0,0,0,0,0,0,0,0,0.0053,0.0049,0.0018,0.0014,0.001,-0.0046,-0.0054,-0.0096,-0.0083,-0.0051,-0.0084,-0.0085,-0.0148,-0.0156,-0.0171,-0.0226,-0.0231,-0.0216,-0.0218,-0.022,-0.0221,0,0,0,0,0,0,0,0.0057,0.0052,0.0015,0.0017,0.0012,-0.0018,-0.0025,-0.0063,-0.0098,-0.0053,-0.0057,-0.0063,-0.0151,-0.0167,-0.0174,-0.0232,-0.0215,-0.0219,-0.0222,-0.0223,-0.0307,-0.0307,0,0,0,0,0,0,0.0072,0.0055,0.0018,0.0013,0.0033,-0.0018,-0.0026,-0.0029,-0.0097,-0.0107,-0.0062,-0.0065,-0.016,-0.017,-0.0179,-0.019,-0.022,-0.0224,-0.0226,-0.0307,-0.0307,-0.0307,0,0,0,0,0,0,0.0074,0.007,0.0021,0.0033,0.0025,-0.0018,-0.0022,-0.003,-0.0045,-0.0103,-0.0114,-0.0068,-0.0161,-0.0173,-0.0204,-0.0195,-0.0225,-0.0229,-0.0308,-0.0307,-0.0307,-0.0222,0,0,0,0,0,0,0.0076,0.0071,0.0075,0.0035,0.0025,0.001,-0.0022,-0.0031,-0.0047,-0.0051,-0.0111,-0.0122,-0.0162,-0.0197,-0.0208,-0.0202,-0.0232,-0.0308,-0.0307,-0.0307,-0.0225,-0.0219,-0.0214,0,0,0,0,0,0.0078,0.009,0.0076,0.0071,0.0032,0.0011,0.0003,-0.0031,-0.0046,-0.0047,-0.0087,-0.012,-0.0202,-0.02,-0.0213,-0.0208,-0.0308,-0.0308,-0.0307,-0.0228,-0.022,-0.0214,0,0,0,0,0,0,0.0113,0.0085,0.0068,0.0071,0.0047,0.0003,0.0001,-0.0024,-0.0056,-0.0058,-0.0117,-0.013,-0.0156,-0.0193,-0.019,-0.0231,-0.0261,-0.0263,-0.0197,-0.019,-0.0184,-0.0165,-0.0236,0,0,0,0,0,0.0123,0.0125,0.009,0.0093,0.0085,0.0044,0.0031,0.001,-0.0024,-0.0039,-0.0081,-0.0126,-0.0164,-0.0184,-0.0224,-0.0245,-0.0282,-0.0251,-0.0245,-0.0239,-0.0233,-0.028,-0.0277,-0.0305,-0.0305,-0.0305,0,0,0.0137,0.0122,0.0122,0.01,0.0079,0.0079,0.0035,0.0026,0.0023,-0.0046,-0.0061,-0.0106,-0.0165,-0.0188,-0.0203,-0.0217,-0.025,-0.0239,-0.0233,-0.023,-0.0279,-0.0276,-0.0274,-0.0304,-0.0305,-0.0305,0,0,0.0172,0.0154,0.017,0.0156,0.0134,0.0109,0.0111,0.0073,0.0054,0.0034,-0.0017,-0.0053,-0.011,-0.0149,-0.0178,-0.0164,-0.0217,-0.0178,-0.0133,-0.0178,-0.0176,-0.0175,-0.0211,-0.0213,-0.0175,-0.0175,-0.0175,0,0.019,0.0204,0.0171,0.0182,0.018,0.0129,0.0147,0.012,0.0076,0.0066,0.0042,-0.0041,-0.0091,-0.0125,-0.0121,-0.015,-0.0182,-0.0152,-0.0169,-0.0169,-0.0169,-0.0206,-0.021,-0.0171,-0.0171,-0.0172,-0.0172,0,0.0236,0.0247,0.0256,0.0255,0.0247,0.0254,0.0218,0.0204,0.0175,0.0144,0.0107,0.0036,-0.0011,-0.0037,-0.0077,-0.0101,-0.0125,-0.0155,-0.0182,-0.0161,-0.0202,-0.0207,-0.0165,-0.0166,-0.0167,-0.0168,0,0,0.028,0.0289,0.0292,0.0309,0.0289,0.0291,0.0286,0.0269,0.0273,0.0216,0.021,0.0133,0.0092,0.0057,-0.0003,-0.0047,-0.0077,-0.0094,-0.0098,-0.012,-0.017,-0.0175,-0.0182,-0.011,-0.011,-0.0111,-0.0195,0,0.0327,0.0373,0.0359,0.0401,0.0423,0.0383,0.0386,0.0362,0.0329,0.0309,0.0227,0.0198,0.0128,0.0108,0.0052,-0.0042,-0.0089,-0.0051,-0.0196,-0.02,-0.02,-0.0188,-0.0163,-0.0235,-0.0201,-0.0202,-0.0203,0,0.0379,0.0405,0.0456,0.0483,0.0489,0.0499,0.0501,0.0495,0.0447,0.0423,0.0371,0.031,0.0238,0.0174,0.0026,0.0055,-0.0048,-0.0128,-0.0134,-0.0172,-0.0215,-0.0255,-0.0247,-0.0213,-0.0212,-0.0211,-0.021,0,0.0433,0.0474,0.0521,0.0528,0.0544,0.0557,0.0556,0.0529,0.0545,0.0491,0.0502,0.0395,0.0356,0.0214,0.0055,0.004,-0.0108,-0.0153,-0.0257,-0.0259,-0.0283,-0.0285,-0.0262,-0.0262,-0.0262,-0.0261,-0.0261,0,0.049,0.0528,0.0551,0.0576,0.0635,0.0617,0.0665,0.0644,0.0639,0.0672,0.0565,0.0571,0.0366,0.026,0.0092,-0.0086,-0.0082,-0.0245,-0.028,-0.0252,-0.025,-0.027,-0.027,-0.0265,-0.0264,-0.0263,-0.0263,0,0.054,0.0553,0.0612,0.0646,0.0662,0.0699,0.0749,0.0783,0.0764,0.0802,0.0797,0.0708,0.0572,0.0366,0.0139,-0.0019,-0.0203,-0.0272,-0.0218,-0.0246,-0.0336,-0.0331,-0.0399,-0.04,-0.0401,-0.0402,-0.0402,0,0.0569,0.0606,0.0669,0.0712,0.0729,0.0785,0.0829,0.0838,0.0888,0.0894,0.0927,0.082,0.0766,0.0441,0.014,-0.0146,-0.0193,-0.0318,-0.0351,-0.0322,-0.035,-0.0344,-0.0338,-0.0353,-0.0353,-0.0353,-0.0353,0,0.0627,0.0646,0.0695,0.0786,0.0845,0.0923,0.0989,0.1054,0.1071,0.1118,0.1152,0.1111,0.0809,0.0533,0.014,-0.0063,-0.0271,-0.0328,-0.0317,-0.0313,-0.0283,-0.0309,-0.0304,-0.0354,-0.0354,-0.0354,-0.0354,-0.0353,0.0667,0.0714,0.078,0.0866,0.0944,0.1045,0.1118,0.1205,0.1303,0.1372,0.1324,0.1273,0.0943,0.0458,0.0106,-0.027,-0.026,-0.0398,-0.0396,-0.0395,-0.0365,-0.0337,-0.0413,-0.0413,-0.0413,-0.0413,-0.0414,0,0.0719,0.0774,0.0857,0.0959,0.1049,0.1086,0.1219,0.1293,0.1421,0.1489,0.152,0.1215,0.0905,0.0525,-0.0023,-0.0349,-0.0387,-0.0458,-0.043,-0.0426,-0.0424,-0.0395,-0.0452,-0.0453,-0.0454,-0.0455,0,0,0.0748,0.083,0.087,0.1022,0.1104,0.1228,0.1309,0.1424,0.1508,0.1573,0.1558,0.1499,0.1037,0.0639,0.0186,-0.0129,-0.0205,-0.0199,-0.0133,-0.0043,-0.0037,-0.0356,-0.0303,0,0,0,0,0]}],[{"header":{"parameterUnit":"m.s-1","parameterCategory":2,"la1":30.2991,"la2":30.254,"lo1":-89.0895,"lo2":-89.0444,"dy":0.0017,"dx":0.0017,"nx":28,"ny":28,"refTime":"2025-04-30T09:00:00:Z","depth":"4","parameterNumber":2,"parameterNumberName":"U-component_of_CURRENTS"},"data":[0,0,0,0,0,0,0,0,0,0,0,0,0,0,0,0,0,0,0,0,0,0,0,0,0,0,0,0,0,0,0,0,0,0,0,0,0,0,0,0,0,0,0,0,0,0,0,0,0,0,0,0,0,0,0,0,0,0,0.1831,0.1832,0,0.1914,0.1915,0.1915,0.1981,0.1982,0.1982,0.1983,0.2077,0.2078,0.208,0,0,0,0,0,0,0,0,0,0,0,0,0,0.1721,0.1722,0.183,0.1832,0.1833,0.1914,0.1915,0.1916,0.1981,0.1982,0.1983,0.1984,0.2076,0.2078,0.208,0,0,0,0,0,0,0,0,0,0,0,0,0,0.178,0.1723,0.183,0.1877,0.1882,0.1914,0.1915,0.1916,0.198,0.1982,0.1983,0.1984,0.2075,0.2078,0.208,0.207,0,0,0.2088,0.2089,0,0,0,0,0,0,0,0,0.1777,0.1784,0.1869,0.1874,0.188,0.194,0.191,0.1969,0.198,0.194,0.1983,0.1985,0.2033,0.2039,0.2048,0.2075,0.2079,0.2088,0.209,0.2091,0.2092,0,0,0,0,0,0,0,0.1773,0.1781,0.1861,0.187,0.1877,0.1891,0.1901,0.1921,0.1977,0.1944,0.195,0.1962,0.2035,0.2045,0.2051,0.208,0.2088,0.2091,0.2092,0.2093,0.2228,0.223,0,0,0,0,0,0,0.1766,0.1777,0.1859,0.1864,0.1833,0.1893,0.1903,0.1918,0.1976,0.1987,0.1961,0.1965,0.204,0.2048,0.2054,0.216,0.2091,0.2093,0.2095,0.2226,0.2228,0.2231,0,0,0,0,0,0,0.1763,0.1773,0.1855,0.1824,0.1836,0.1893,0.1909,0.1919,0.1969,0.199,0.2001,0.2006,0.2042,0.2051,0.2114,0.216,0.2095,0.2097,0.2223,0.2227,0.2229,0.2298,0,0,0,0,0,0,0.176,0.1771,0.1797,0.1824,0.1838,0.1901,0.1908,0.1919,0.1974,0.1981,0.2031,0.2039,0.2043,0.211,0.2116,0.2162,0.2099,0.2221,0.2225,0.2228,0.2293,0.2303,0.2312,0,0,0,0,0,0.1756,0.1779,0.1798,0.1809,0.1865,0.1903,0.1912,0.1954,0.1975,0.2004,0.2044,0.204,0.2139,0.2114,0.2121,0.2168,0.2219,0.2224,0.2228,0.2289,0.2301,0.2312,0,0,0,0,0,0,0.1746,0.1789,0.181,0.1847,0.1887,0.1916,0.1951,0.1975,0.2028,0.2048,0.2063,0.2074,0.2148,0.2147,0.2119,0.2219,0.2179,0.2186,0.2224,0.2235,0.2244,0.2237,0.2101,0,0,0,0,0,0.1754,0.1787,0.1825,0.1861,0.1884,0.1924,0.1953,0.1982,0.2023,0.2049,0.2086,0.2126,0.2164,0.2192,0.2222,0.2274,0.2273,0.231,0.2319,0.2327,0.2327,0.2368,0.2381,0.2246,0.2246,0.2246,0,0,0.176,0.179,0.181,0.1863,0.1898,0.1936,0.1946,0.2001,0.2043,0.2049,0.2131,0.2162,0.2185,0.2249,0.2281,0.226,0.2368,0.2333,0.2339,0.2335,0.2374,0.2387,0.2399,0.2249,0.2248,0.2248,0,0,0.1775,0.1818,0.1848,0.1886,0.1948,0.1972,0.1996,0.2051,0.2094,0.2162,0.2183,0.2241,0.23,0.2327,0.2345,0.2421,0.2416,0.2441,0.2483,0.2524,0.2535,0.2545,0.2568,0.2579,0.2445,0.2446,0.2446,0,0.1785,0.1826,0.1864,0.1904,0.1942,0.1992,0.2032,0.2077,0.215,0.2188,0.2202,0.2309,0.2333,0.2402,0.2435,0.2442,0.246,0.2438,0.2535,0.2545,0.2554,0.2575,0.2586,0.2449,0.2449,0.2449,0.2448,0,0.1812,0.1862,0.1886,0.1952,0.1996,0.2044,0.2102,0.2164,0.2219,0.2259,0.2356,0.2395,0.2456,0.248,0.2483,0.2565,0.2556,0.2542,0.2503,0.2571,0.2589,0.26,0.2455,0.2454,0.2452,0.2451,0,0,0.1784,0.1885,0.1898,0.1939,0.2029,0.2062,0.2145,0.2221,0.228,0.2361,0.2435,0.2511,0.2543,0.2564,0.2586,0.2624,0.2705,0.2618,0.2618,0.2634,0.2796,0.2642,0.2638,0.2716,0.2719,0.272,0.2786,0,0.1798,0.187,0.1922,0.2001,0.2043,0.2121,0.2187,0.2268,0.2342,0.2427,0.2489,0.2567,0.2571,0.2617,0.266,0.2699,0.2736,0.2688,0.2734,0.2735,0.2583,0.2646,0.2727,0.2794,0.2796,0.2798,0.2799,0,0.1799,0.1851,0.1926,0.2028,0.2055,0.2114,0.2231,0.2298,0.2418,0.248,0.2571,0.2622,0.2714,0.2698,0.2798,0.2774,0.2794,0.2809,0.2812,0.2646,0.2599,0.2711,0.2818,0.2816,0.2815,0.2814,0.2813,0,0.1741,0.185,0.1911,0.1949,0.2069,0.213,0.2201,0.232,0.2394,0.2524,0.2595,0.2692,0.2767,0.2812,0.2867,0.2846,0.2957,0.2924,0.2799,0.2789,0.2876,0.2865,0.2981,0.2981,0.2981,0.2981,0.2981,0,0.1714,0.1768,0.1897,0.193,0.2011,0.2108,0.2206,0.2292,0.2428,0.2504,0.2623,0.2692,0.2805,0.2882,0.2899,0.2886,0.2988,0.2811,0.2797,0.2905,0.2896,0.2884,0.2872,0.2983,0.2983,0.2982,0.2982,0,0.1637,0.1723,0.1801,0.1938,0.1987,0.2046,0.2209,0.227,0.2415,0.2522,0.2573,0.2733,0.2817,0.2906,0.2985,0.2916,0.292,0.2888,0.3011,0.3002,0.2713,0.2704,0.2736,0.2731,0.2727,0.2723,0.2721,0,0.1599,0.1634,0.1788,0.1836,0.1907,0.2014,0.208,0.2243,0.2309,0.2515,0.2548,0.2704,0.2782,0.2774,0.2872,0.2893,0.2864,0.2842,0.2755,0.2706,0.269,0.2687,0.2684,0.2714,0.2713,0.2712,0.2711,0,0.1527,0.1599,0.1662,0.1762,0.1845,0.1923,0.2035,0.2074,0.2243,0.2401,0.246,0.2514,0.2608,0.2663,0.2713,0.2719,0.2838,0.2798,0.2805,0.2723,0.2679,0.2667,0.2669,0.2696,0.2699,0.27,0.2701,0,0.1476,0.1499,0.1595,0.1667,0.1766,0.1803,0.1876,0.195,0.2039,0.2257,0.2266,0.2425,0.2568,0.2575,0.2616,0.2619,0.257,0.2474,0.2497,0.2514,0.2413,0.2323,0.2222,0,0,0,0,0,0.1414,0.1427,0.149,0.1559,0.1652,0.1709,0.1833,0.1906,0.2066,0.2049,0.2154,0.2222,0.2287,0.2378,0.2337,0.253,0.2588,0.2472,0.249,0.2617,0.2634,0.2537,0,0,0,0,0,0,0.1369,0.1425,0.1446,0.1457,0.1484,0.1565,0.1635,0.1741,0.1744,0.1913,0.1962,0.2092,0.2194,0.2287,0.2296,0.2324,0.2291,0.2578,0.2573,0.2608,0.2623,0.2636,0.2542,0,0,0,0,0]},{"header":{"parameterUnit":"m.s-1","parameterCategory":2,"la1":30.2991,"la2":30.254,"lo1":-89.0895,"lo2":-89.0444,"dy":0.0017,"dx":0.0017,"nx":28,"ny":28,"refTime":"2025-04-30T09:00:00:Z","depth":"4","parameterNumber":3,"parameterNumberName":"V-component_of_CURRENTS"},"data":[0,0,0,0,0,0,0,0,0,0,0,0,0,0,0,0,0,0,0,0,0,0,0,0,0,0,0,0,0,0,0,0,0,0,0,0,0,0,0,0,0,0,0,0,0,0,0,0,0,0,0,0,0,0,0,0,0,0,0.001,0.0009,0,-0.0041,-0.0042,-0.0043,-0.0083,-0.0083,-0.0084,-0.0084,-0.0171,-0.0173,-0.0175,0,0,0,0,0,0,0,0,0,0,0,0,0,0.0035,0.0035,0.001,0.0009,0.0009,-0.0041,-0.0042,-0.0043,-0.0083,-0.0083,-0.0084,-0.0084,-0.017,-0.0173,-0.0175,0,0,0,0,0,0,0,0,0,0,0,0,0,0.0007,0.0035,0.001,-0.0016,-0.0019,-0.0041,-0.0042,-0.0043,-0.0083,-0.0083,-0.0084,-0.0084,-0.017,-0.0173,-0.0176,-0.0186,0,0,-0.0185,-0.0186,0,0,0,0,0,0,0,0,0.0008,0.0006,-0.0012,-0.0015,-0.0018,-0.0055,-0.0065,-0.0092,-0.0083,-0.006,-0.0084,-0.0084,-0.0135,-0.0141,-0.015,-0.019,-0.0194,-0.0185,-0.0187,-0.0189,-0.0189,0,0,0,0,0,0,0,0.001,0.0007,-0.0012,-0.0012,-0.0016,-0.0039,-0.0043,-0.0071,-0.0096,-0.0062,-0.0065,-0.0068,-0.0137,-0.0147,-0.0153,-0.0195,-0.0185,-0.0188,-0.019,-0.0191,-0.0255,-0.0255,0,0,0,0,0,0,0.0022,0.001,-0.001,-0.0013,-0.0004,-0.0038,-0.0043,-0.0044,-0.0095,-0.0102,-0.0068,-0.007,-0.0142,-0.0149,-0.0156,-0.0165,-0.0189,-0.0191,-0.0193,-0.0256,-0.0255,-0.0255,0,0,0,0,0,0,0.0022,0.0021,-0.0008,-0.0002,-0.0007,-0.0038,-0.0039,-0.0044,-0.0055,-0.0099,-0.0107,-0.0072,-0.0142,-0.0152,-0.0175,-0.0169,-0.0193,-0.0196,-0.0256,-0.0256,-0.0255,-0.0188,0,0,0,0,0,0,0.0023,0.0021,0.0025,-0.0001,-0.0007,-0.0013,-0.0038,-0.0045,-0.0056,-0.006,-0.0106,-0.0114,-0.0144,-0.017,-0.0178,-0.0174,-0.0198,-0.0256,-0.0256,-0.0255,-0.019,-0.0185,-0.0181,0,0,0,0,0,0.0025,0.0036,0.0025,0.0023,-0.0001,-0.0013,-0.0018,-0.0042,-0.0056,-0.0055,-0.0086,-0.0113,-0.0175,-0.0173,-0.0182,-0.0178,-0.0256,-0.0256,-0.0255,-0.0192,-0.0186,-0.0181,0,0,0,0,0,0,0.0048,0.0032,0.002,0.0025,0.001,-0.0019,-0.0019,-0.0038,-0.0062,-0.0065,-0.0109,-0.012,-0.0139,-0.0168,-0.0165,-0.0197,-0.0221,-0.0222,-0.0169,-0.0164,-0.0159,-0.0145,-0.0201,0,0,0,0,0,0.0056,0.006,0.0038,0.0042,0.0038,0.0009,0.0001,-0.0014,-0.0038,-0.0049,-0.0081,-0.0116,-0.0145,-0.0161,-0.019,-0.0206,-0.0238,-0.0211,-0.0207,-0.0202,-0.0198,-0.0239,-0.0238,-0.0254,-0.0254,-0.0254,0,0,0.0066,0.0058,0.0059,0.0047,0.0033,0.0036,0.0003,-0.0002,-0.0002,-0.0055,-0.0065,-0.01,-0.0146,-0.0162,-0.0174,-0.0186,-0.0213,-0.0202,-0.0198,-0.0196,-0.0239,-0.0237,-0.0236,-0.0254,-0.0254,-0.0254,0,0,0.0094,0.0082,0.0096,0.0088,0.0075,0.0059,0.006,0.0035,0.0022,0.0008,-0.0031,-0.0061,-0.0102,-0.0133,-0.0155,-0.0144,-0.0187,-0.0155,-0.012,-0.016,-0.0159,-0.0158,-0.0189,-0.0192,-0.0153,-0.0152,-0.0152,0,0.0106,0.012,0.0098,0.0109,0.011,0.0073,0.009,0.0071,0.0041,0.0034,0.0015,-0.0049,-0.0088,-0.0114,-0.0111,-0.0133,-0.016,-0.0135,-0.0153,-0.0153,-0.0154,-0.0186,-0.019,-0.0149,-0.015,-0.015,-0.015,0,0.0143,0.0154,0.0163,0.0166,0.0163,0.0171,0.0147,0.0138,0.0116,0.0095,0.0067,0.0012,-0.0025,-0.0045,-0.0075,-0.0098,-0.0117,-0.0141,-0.0163,-0.0148,-0.0183,-0.0188,-0.0144,-0.0146,-0.0147,-0.0147,0,0,0.0171,0.0186,0.019,0.0205,0.0195,0.02,0.02,0.019,0.0193,0.0152,0.0147,0.0088,0.0055,0.0028,-0.0019,-0.0058,-0.0086,-0.0095,-0.0099,-0.0118,-0.0168,-0.0168,-0.0174,-0.0113,-0.0114,-0.0114,-0.0188,0,0.0206,0.0246,0.0242,0.0278,0.0297,0.0271,0.0278,0.0263,0.0239,0.0224,0.016,0.0138,0.0084,0.0068,0.0021,-0.0058,-0.0098,-0.0064,-0.0187,-0.019,-0.0186,-0.018,-0.0116,-0.0192,-0.0193,-0.0194,-0.0195,0,0.0243,0.0267,0.0312,0.034,0.0347,0.0361,0.0365,0.0365,0.033,0.0312,0.0272,0.0223,0.0164,0.0114,-0.001,0.0015,-0.0068,-0.0134,-0.0139,-0.0166,-0.02,-0.0214,-0.0205,-0.0204,-0.0203,-0.0203,-0.0202,0,0.0275,0.0316,0.0356,0.0365,0.0388,0.0402,0.0409,0.0392,0.0406,0.0366,0.0373,0.0286,0.0253,0.0137,0.0005,-0.0003,-0.0134,-0.0165,-0.0245,-0.0246,-0.0254,-0.0254,-0.0256,-0.0256,-0.0255,-0.0255,-0.0255,0,0.0311,0.0344,0.0377,0.0398,0.045,0.0446,0.0489,0.0477,0.0477,0.0502,0.0423,0.0418,0.0258,0.0166,0.0031,-0.0115,-0.0116,-0.0236,-0.0265,-0.0223,-0.0219,-0.0258,-0.0257,-0.0258,-0.0257,-0.0257,-0.0256,0,0.0335,0.0356,0.0407,0.0448,0.0467,0.05,0.0554,0.0581,0.0574,0.06,0.0597,0.0519,0.0399,0.0237,0.0048,-0.0067,-0.0217,-0.0272,-0.0201,-0.0225,-0.0311,-0.0306,-0.0367,-0.0368,-0.0368,-0.0369,-0.0369,0,0.0349,0.0379,0.0446,0.0484,0.0506,0.0561,0.0601,0.0622,0.0658,0.0662,0.068,0.0587,0.0511,0.0263,0.0072,-0.0178,-0.0223,-0.0303,-0.0323,-0.03,-0.0322,-0.0316,-0.0311,-0.037,-0.037,-0.037,-0.037,0,0.0372,0.0397,0.0439,0.052,0.0576,0.0648,0.0708,0.0747,0.077,0.0777,0.0757,0.0627,0.0491,0.0278,0.0088,-0.0099,-0.0253,-0.0309,-0.031,-0.033,-0.0304,-0.0324,-0.0318,-0.0372,-0.0372,-0.0372,-0.0371,0,0.0385,0.0416,0.0472,0.0542,0.0627,0.0704,0.0738,0.0786,0.0822,0.0831,0.0821,0.0669,0.0583,0.0319,0.0141,-0.0037,-0.0097,-0.0169,-0.0179,-0.0179,-0.0111,-0.0049,-0.006,0,0,0,0,0,0.0385,0.0415,0.0487,0.0566,0.0661,0.0707,0.0797,0.0825,0.086,0.086,0.0846,0.072,0.0463,0.0354,0.0177,0.0102,-0.0146,-0.0115,-0.0238,-0.0382,-0.038,-0.0334,0,0,0,0,0,0,0.0378,0.0438,0.0475,0.0579,0.064,0.074,0.0798,0.0825,0.0831,0.0841,0.0717,0.066,0.0417,0.0566,0.0169,0.0114,0.0007,-0.023,-0.0234,-0.0383,-0.0381,-0.038,-0.0332,0,0,0,0,0]}]]